www.pogodaiklimat.ru

Погода и климат >> Архив погоды >> Доминиканская Республика >> Sabana De La Mar


ПОГОДА в Sabana De La Mar

  • Прогноз погоды в Sabana De La Mar
  • Монитор погоды в Sabana De La Mar
  • Климат города

АРХИВ ПОГОДЫ в Sabana De La Mar

Время (UTC), дата Ветер
(напр.,м/с)
 
Видим.   Явления Облачность Т
(С)
Тd
(С)
f
(%)
Тe
(С)
Тes
(С)
Комфортность P
(гПа)
Po
(гПа)
Тmin
(С)
Tmax
(С)
R
(мм)
R24
(мм)
S
(см)
18 10.10 В 3 16 км 9/8 450 м
[Cb cap Ac trans]
+28.0 +24.5 81 +39 +41 очень
душно
1012.4 1012.0 +17.5 +30.5
21 10.10 В 4 16 км {дождь} 8/4 450 м
[Cu med, cong Ac As]
+28.0 +23.9 78 +39 +39 очень
душно
1010.7 1011.0 0.4
12 11.10 штиль 0 16 км 3/1 540 м
[Cu med, cong Ci fib]
+23.4 +21.7 90 +32 +34 очень
душно
1013.2 1013.0 +17.2 +30.5
15 11.10 ЮВ 2 16 км 3/1 600 м
[Cu med, cong Ci fib]
+29.8 +24.1 72 +42 +54 опасность
перегрева
1013.9 1014.0
18 11.10 В 3 16 км 6/1 600 м
[Cu med, cong Cc]
+30.5 +24.4 70 +43 +53 опасность
перегрева
1013.0 1013.0 +17.2 +30.5
00 12.10 З 2 2000 м дождь 10/10 450 м
[Sc]
+23.4 +22.8 96 +33 +33 очень
душно
1012.8 1013.0 +17.2 +30.5 14
12 12.10 Ю 2 16 км 6/3 480 м
[Cu med, cong Ac trans]
+24.8 +23.7 94 +34 +35 очень
душно
1013.0 1013.0 +17.5 +30.5
15 12.10 В 2 16 км 8/4 450 м
[Cu med, cong Ac trans]
+28.6 +25.1 81 +41 +46 опасность
перегрева
1014.0 1014.0
18 12.10 В 2 16 км 8/8 450 м
[Cb cap]
+29.2 +25.2 79 +42 +45 опасность
перегрева
1012.3 1012.0 +17.5 +31.5
00 13.10 Ю 1 16 км 8/8 450 м
[Cb cap]
+25.2 +24.6 96 +35 +35 очень
душно
1012.4 1012.0 +17.5 +31.5
03 13.10 Ю 1 16 км 8/8 450 м
[Cb cap]
+25.2 +24.6 96 +35 +35 очень
душно
1012.4 1012.0 +17.5 +31.5
12 13.10 штиль 0 16 км 3/1 300 м
[Cu med, cong Ci fib]
+23.8 +22.4 92 +31 +33 очень
душно
1012.2 1012.0 +17.2 +31.5 4
15 13.10 Ю 2 16 км 3/3 450 м
[Cb cap]
+30.4 +25.0 73 +44 +54 опасность
перегрева
1014.0 1014.0
18 13.10 Ю 2 16 км 6/6 450 м
[Cb cap]
+29.6 +25.9 81 +44 +50 опасность
перегрева
1012.9 1013.0 +17.5 +31.5
21 13.10 Ю 3 16 км 6/6 450 м
[Cb cap]
+27.0 +23.7 82 +37 +38 очень
душно
1012.1 1012.0
00 14.10 Ю 2 16 км 1/1 540 м
[Cu med, cong]
+25.2 +23.5 90 +34 +34 очень
душно
1013.0 1013.0 +17.2 +31.5
12 14.10 штиль 0 16 км 6/3 540 м
[Cb cap Ac trans]
+25.2 +23.7 91 +34 +35 очень
душно
1014.5 1015.0 +17.6 +31.5
18 14.10 Ю 3 4000 м слабый дождь {гроза} 10/10 450 м
[Cb cap]
+24.0 +23.4 96 +32 +32 очень
душно
1014.9 1015.0 +17.6 +29.8 10
21 14.10 штиль 0 16 км {гроза, дождь} 9/1 540 м
[Cu med, cong Ac As]
+23.6 +22.5 94 +31 +32 очень
душно
1013.8 1014.0 1
12 15.10 Ю 1 16 км 5/1 300 м
[Cu med, cong Ac trans]
+22.8 +22.2 96 +31 +32 очень
душно
1015.5 1016.0 +16.0 +29.8 0.3
15 15.10 В 4 16 км 6/4 600 м
[Cu med, cong Ac trans]
+29.8 +24.6 74 +42 +47 опасность
перегрева
1015.8 1016.0
18 15.10 В 4 16 км 4/4 600 м
[Cu med, cong]
+31.0 +25.7 73 +46 +51 опасность
перегрева
1014.4 1014.0 +16.0 +31.5
21 15.10 В 4 16 км 6/3 600 м
[Cu med, cong Ac und]
+28.8 +25.9 84 +43 +44 опасность
перегрева
1013.2 1013.0
00 16.10 В 3 16 км 4/4 450 м
[Cu med, cong]
+27.0 +23.4 81 +37 +37 очень
душно
1014.3 1014.0 +16.0 +31.5
12 16.10 штиль 0 16 км слабый дождь 8/4 300 м
[Cu Sc As op]
+24.0 +23.2 95 +32 +33 очень
душно
1015.7 1016.0 +18.0 +31.5 3
15 16.10 С 2 16 км {гроза, дождь} 9/5 450 м
[Cu Sc As op]
+27.0 +24.3 85 +38 +40 очень
душно
1016.8 1017.0 0.6
18 16.10 штиль 0 16 км слабый дождь {гроза} 9/9 450 м
[Cu Sc]
+25.2 +24.4 95 +35 +37 очень
душно
1014.4 1014.0 +18.0 +28.0 2
21 16.10 В 3 16 км в посл. час дождь 8/6 450 м
[Cu med, cong Ci fib]
+28.0 +24.7 82 +40 +40 очень
душно
1013.2 1013.0 0.6
00 17.10 штиль 0 16 км слабый дождь 6/6 450 м
[Cu Sc]
+24.6 +23.5 94 +33 +33 очень
душно
1013.8 1014.0 +18.0 +28.0 0.6
12 17.10 В 4 16 км 8/8 450 м
[Cb cap]
+27.2 +24.5 85 +38 +38 очень
душно
1015.8 1016.0 +22.0 +28.0 11

 

Местоположение метеостанции Sabana De La Mar (Доминиканская Республика): широта 19.05 долгота -69.38 высота над уровнем моря 10 м.

В архиве по умолчанию представлена погода в Sabana De La Mar за последнюю неделю. Архивные данные за месяц целиком и за предыдущие месяцы, начиная с января 2011 года, Вы можете получить, выбрав интересующий диапазон дат из раскрывающегося списка и нажав кнопку "Ввод!".


*Определитесь, кто Вы:
робот инопланетянин человек

Внимание! Время в таблицах - всемирное. Для получения местного времени необходимо прибавить поправку, которая в Sabana De La Mar равна -4 ч.

Смотрите также архив погоды в соседних городах и на ближайших метеорологических станциях:

Погода в Las Americas (Доминиканская Республика) (75 км)
Погода в La Romana Int Airport (Доминиканская Республика) (82 км)
Погода в Santo Domingo (Доминиканская Республика) (87 км)
Погода в Punta Cana (Доминиканская Республика) (120 км)
Погода в Puerto Plata (Доминиканская Республика) (145 км)
Погода в Santiago (Доминиканская Республика) (146 км)
Погода в Barahona (Доминиканская Республика) (204 км)
Погода в Charlotte Amalie St. Thomas (Виргинские Острова) (472 км)
Погода в Punta de Maisi (Куба) (517 км)
Погода в Juliana Airport (Нидерландские Антилы) (671 км)

Пояснения к столбцам:

Ветер - указаны скорость ветра в м/с - средняя за 10 мин, порывы в срок и между сроками (в фигурных скобках) и направление, откуда дует ветер: С - северный, СВ - северо-восточный, В - восточный, ЮВ - юго-восточный, Ю - южный, ЮЗ - юго-западный, З - западный, СЗ - северо-западный.
Видимость - горизонтальная дальность видимости в метрах или километрах. При видимости от 1 до 10 км при отсутствии осадков обычно наблюдается дымка, при ухудшении видимости до 1 км и менее - туман. В сухую погоду видимость может ухудшаться дымом, пылью или мглою.
Явления - указаны атмосферные явления, наблюдавшиеся в срок или в последний час перед сроком; фигурными скобками обозначены явления, наблюдавшиеся между сроками (за 1-3 часа до срока); квадратными скобками обозначены град или гололедные отложения с указанием их диаметра в мм.
Облачность - указаны через наклонную черту общая и нижняя облачность в баллах и высота нижней границы облаков в метрах; квадратными скобками обозначены формы облаков: Ci - перистые, Cs - перисто-слоистые, Cc - перисто-кучевые, Ac - высококучевые, As - высокослоистые, Sc - слоисто-кучевые, Ns - слоисто-дождевые, Cu - кучевые, Cb - кучево-дождевые. Подробнее классификацию облаков см. в Атласе облаков (PDF).
T - Температура воздуха - температура, измеренная на высоте 2 м над землей.
Td - Температура точки росы - температура, при понижении до которой содержащийся в воздухе водяной пар достигнет насыщения.
f - Относительная влажность воздуха - влажноcть воздуха, измеренная на высоте 2 м над землей.
Te - Эффективная температура - температура, которую ощущает одетый по сезону человек в тени. Характеристика душности погоды. При расчете учитывается влияние влажности воздуха и скорости ветра на теплоощущения человека.
Tes - Эффективная температура на солнце - температура, которую ощущает человек, с поправкой на солнечный нагрев. Характеристика знойности погоды. Зависит от высоты солнца над горизонтом, облачности и скорости ветра. Ночью, в пасмурную погоду, а также при ветре 12 м/с и более поправка равна нулю.
P - Атмосферное давление - приведенное к уровню моря атмосферное давление.
Po - Атмосферное давление - измеренное на уровне метеостанции атмосферное давление.
Tmin - Минимальная температура - минимум температуры воздуха на высоте 2 м над землей.
Tmax - Максимальная температура - максимум температуры воздуха на высоте 2 м над землей.
R - Количество осадков - Количество выпавших осадков за период времени, мм. При наведении курсора мыши на число - период времени, за который выпало указанное количество осадков.
R24 - Количество осадков - Количество выпавших осадков за 24 часа, мм.
S - Снежный покров - Высота снежного покрова, см. При наведении курсора мыши на число - состояние снежного покрова и степень покрытия местности в баллах.